This is the latest recevied weather packets stored in our database for station/object KC4JES. If no packets are shown the sender has not sent any weather packets the latest 10 day(s).
| Time | Temp. | Humidity | Pressure | Rain* | Wind** | Luminosity | Snow |
|---|---|---|---|---|---|---|---|
| 1777386322 | 25° C | 78% | 1021.7 hPa | 0 mm | - | 92 W/m² | - |
| 1777386020 | 24.44° C | 78% | 1021.9 hPa | 0 mm | - | 86 W/m² | - |
| 1777385716 | 24.44° C | 80% | 1021.7 hPa | 0 mm | - | 169 W/m² | - |
| 1777385413 | 24.44° C | 79% | 1021.8 hPa | 0 mm | - | 111 W/m² | - |
| 1777385110 | 24.44° C | 77% | 1021.5 hPa | 0 mm | - | 139 W/m² | - |
| 1777384805 | 25° C | 78% | 1021.4 hPa | 0 mm | - | 107 W/m² | - |
| 1777384502 | 24.44° C | 81% | 1021.5 hPa | 0 mm | - | 73 W/m² | - |
| 1777384196 | 24.44° C | 80% | 1021.3 hPa | 0 mm | - | 57 W/m² | - |
| 1777383894 | 24.44° C | 82% | 1021.5 hPa | 0 mm | - | 71 W/m² | - |
| 1777383589 | 23.89° C | 82% | 1021.4 hPa | 0 mm | - | 61 W/m² | - |
| 1777383285 | 23.89° C | 83% | 1021.6 hPa | 0 mm | - | 56 W/m² | - |
| 1777382982 | 23.33° C | 84% | 1021.5 hPa | 0 mm | - | 43 W/m² | - |
| 1777382678 | 23.33° C | 85% | 1021.4 hPa | 0 mm | - | 50 W/m² | - |
| 1777382374 | 22.78° C | 88% | 1021.3 hPa | 0 mm | - | 36 W/m² | - |
| 1777382070 | 22.78° C | 90% | 1021.3 hPa | 0 mm | - | 54 W/m² | - |
| 1777381767 | 22.22° C | 90% | 1021 hPa | 0 mm | - | 51 W/m² | - |
| 1777381461 | 21.67° C | 92% | 1021.1 hPa | 0 mm | - | 35 W/m² | - |
| 1777381158 | 21.67° C | 93% | 1021.1 hPa | 0 mm | - | 38 W/m² | - |
| 1777380855 | 21.67° C | 94% | 1020.8 hPa | 0 mm | - | 45 W/m² | - |
| 1777380552 | 21.67° C | 96% | 1020.9 hPa | 0 mm | - | 35 W/m² | - |
| 1777380248 | 21.67° C | 97% | 1020.9 hPa | 0 mm | - | 36 W/m² | - |
| 1777379944 | 21.11° C | 97% | 1020.9 hPa | 0 mm | - | 33 W/m² | - |
| 1777379640 | 21.11° C | 97% | 1021 hPa | 0 mm | - | 37 W/m² | - |
| 1777379336 | 21.11° C | 98% | 1021 hPa | 0 mm | - | 47 W/m² | - |
| 1777379036 | 20.56° C | 98% | 1021.1 hPa | 0 mm | - | 46 W/m² | - |
* Rain latest hour (hover to see other rain measurements)
** Current wind speed in m/s (hover to see current wind gust speed)